This demonstration page uses our WeatherBlox Daily Observations layout. Learn more.

Left ArrowRight Arrow

39.08367, -84.50855

Hourly Observations for July 12, 2015

Temp ( °F °C ) Dew Point ( °F °C ) Humidity (%) Winds ( mph kmh ) Pressure ( in mb ) Visibility ( mi km ) Precip ( " mm )
12:53 am 00:53 Partly Cloudy 68 20 67 19.4 96 96 Calm 30.08 1019 9 14 0.00 0.00
1:53 am 01:53 Clear 68 20 67 19.4 96 96 Calm 30.08 1019 8 13 0.00 0.00
2:53 am 02:53 Mostly Clear 68 20 67 19.4 96 96 Calm 30.06 1018 7 11 0.00 0.00
3:53 am 03:53 Clear 68 20 67 19.4 96 96 Calm 30.04 1017 7 11 0.00 0.00
4:20 am 04:20 Mostly Cloudy with Nearby Thunderstorms 68 20 67 19.4 96 96 Calm 30.00 1016 6 10 0.00 0.03
4:28 am 04:28 Cloudy with Thunderstorms 68 20 67 19.4 96 96 SW 3 6 30.00 1016 5 8 0.01 0.25
4:39 am 04:39 Cloudy with Strong Thunderstorms 68 20 68 20 100 100 WNW 8 13 30.03 1017 2 3 0.11 2.79
4:53 am 04:53 Cloudy with Thunderstorms 69 20.6 67 19.4 93 93 Calm 30.04 1017 3 4 0.18 4.57
5:14 am 05:14 Mostly Cloudy with Nearby Thunderstorms 68 20 66 19 94 94 ENE 3 6 30.03 1017 6 10 0.00 0.00
5:34 am 05:34 Mostly Cloudy with Nearby Thunderstorms 68 20 66 19 94 94 NE 5 7 30.03 1017 6 10 0.00 0.00
5:53 am 05:53 Cloudy with Nearby Thunderstorms 68 20 67 19.4 96 96 ENE 5 7 30.04 1017 5 8 0.10 2.54
5:56 am 05:56 Cloudy with Thunderstorms 68 20 66 19 94 94 ENE 5 7 30.03 1017 5 8 0.00 0.00
6:30 am 06:30 Cloudy with Rain 68 20 66 19 94 94 ENE 7 11 30.03 1017 4 6 0.00 0.00
6:41 am 06:41 Cloudy with Nearby Thunderstorms 68 20 67 19.4 96 96 NNE 7 11 30.00 1016 4 6 0.12 3.05
6:50 am 06:50 Cloudy with Thunderstorms 68 20 66 19 94 94 NNE 6 9 30.00 1016 5 8 0.00 0.00
6:53 am 06:53 Cloudy with Thunderstorms 68 20 67 19.4 96 96 VRB 3 6 30.05 1018 6 10 0.13 3.30
7:06 am 07:06 Cloudy with Strong Thunderstorms 66 19 66 19 100 100 NE 9 15 30.03 1017 3 5 0.00 0.00
7:18 am 07:18 Cloudy with Thunderstorms 68 20 66 19 94 94 SE 6 9 30.00 1016 5 8 0.00 0.00
7:31 am 07:31 Cloudy 68 20 67 19.4 96 96 VRB 3 6 30.00 1016 10 16 0.28 7.11
7:53 am 07:53 Cloudy 68 20 67 19.4 96 96 Calm 30.02 1017 10 16 0.28 7.11
8:53 am 08:53 Cloudy 70 21.1 68 20 93 93 S 6 9 30.02 1017 10 16 0.00 0.00
9:53 am 09:53 Cloudy 72 22.2 68 20 87 87 S 8 13 30.02 1017 10 16 0.00 0.00
9:55 am 09:55 Cloudy 72 22.2 69 20.6 91 91 SSE 8 13 30.00 1016 10 16 0.00 0.00
10:53 am 10:53 Cloudy 72 22.2 69 20.6 91 91 SSE 6 9 30.00 1016 10 16 0.00 0.00
11:53 am 11:53 Cloudy 74 23.3 70 21.1 88 88 S 6 9 29.98 1015 10 16 0.00 0.00
12:00 pm 12:00 Cloudy 73 23 70 21 89 89 SSE 3 6 29.97 1015 10 16 0.00 0.00
12:53 pm 12:53 Cloudy 76 24.4 71 21.7 85 85 S 5 7 29.97 1015 10 16 0.00 0.00
1:53 pm 13:53 Cloudy 77 25 72 22.2 85 85 SSW 3 6 29.96 1015 10 16 0.00 0.00
2:53 pm 14:53 Mostly Cloudy 81 27.2 73 22.8 77 77 Calm 29.94 1014 10 16 0.00 0.00
3:53 pm 15:53 Mostly Cloudy with Light Rain 82 27.8 74 23.3 77 77 VRB 6 9 29.92 1013 10 16 0.00 0.03
4:53 pm 16:53 Mostly Cloudy 83 28.3 74 23.3 74 74 VRB 6 9 29.89 1012 10 16 0.00 0.03
5:53 pm 17:53 Mostly Cloudy 83 28.3 74 23.3 74 74 ENE 3 6 29.89 1012 10 16 0.00 0.00
6:44 pm 18:44 Mostly Cloudy with Nearby Thunderstorms 81 27 75 24 84 84 SSE 9 15 29.88 1012 10 16 0.00 0.00
6:53 pm 18:53 Mostly Cloudy 81 27.2 75 23.9 82 82 S 6 9 29.87 1011 10 16 0.00 0.03
7:08 pm 19:08 Mostly Cloudy with Thunderstorms 81 27 75 24 84 84 WSW 3 6 29.88 1012 10 16 0.00 0.00
7:53 pm 19:53 Mostly Cloudy 78 25.6 75 23.9 90 90 ENE 7 11 29.89 1012 8 13 0.00 0.03
8:53 pm 20:53 Mostly Cloudy 76 24.4 75 23.9 97 97 Calm 29.90 1013 7 11 0.00 0.00
9:53 pm 21:53 Mostly Cloudy with Light Rain 74 23.3 74 23.3 100 100 Calm 29.91 1013 7 11 0.00 0.03
10:53 pm 22:53 Partly Cloudy with Mist and Fog 73 22.8 73 22.8 100 100 ENE 3 6 29.92 1013 4 6 0.00 0.03
11:53 pm 23:53 Mostly Clear 72 22.2 70 21.1 94 94 NNE 5 7 29.93 1014 10 16 0.00 0.00

Powered by AerisWeather